[[{"header":{"parameterUnit":"m.s-1","parameterCategory":1,"la1":30.2991,"la2":30.254,"lo1":-89.0895,"lo2":-89.0444,"dy":0.0017,"dx":0.0017,"nx":28,"ny":28,"refTime":"2024-05-01T21:00:00:Z","depth":0,"parameterNumber":2,"parameterNumberName":"U-component_of_WINDS"},"data":[0,0,0,0,0,0,0,0,0,0,0,0,0,0,0,0,0,0,0,0,0,0,0,0,0,0,0,0,0,0,0,0,0,0,0,0,0,0,0,0,0,0,0,0,0,0,0,0,0,0,0,0,0,0,0,0,0,0,-4.0921,-4.092,0,-4.0851,-4.085,-4.0849,-4.073,-4.0728,-4.0726,-4.0723,-4.0652,-4.0653,-4.0653,0,0,0,0,0,0,0,0,0,0,0,0,0,-4.0954,-4.0954,-4.0921,-4.092,-4.0919,-4.0851,-4.085,-4.0849,-4.073,-4.0728,-4.0725,-4.0722,-4.0652,-4.0653,-4.0653,0,0,0,0,0,0,0,0,0,0,0,0,0,-4.0918,-4.0954,-4.0921,-4.0852,-4.0845,-4.0851,-4.085,-4.0848,-4.0731,-4.0728,-4.0724,-4.0721,-4.0652,-4.0653,-4.0653,-4.0721,0,0,-4.0654,-4.0654,0,0,0,0,0,0,0,0,-4.092,-4.0917,-4.0863,-4.0857,-4.0849,-4.0796,-4.0835,-4.0806,-4.0732,-4.0774,-4.0723,-4.072,-4.0703,-4.0699,-4.0693,-4.0718,-4.0715,-4.0654,-4.0654,-4.0654,-4.0654,0,0,0,0,0,0,0,-4.0923,-4.0919,-4.0893,-4.0862,-4.0854,-4.0825,-4.0816,-4.0829,-4.0758,-4.077,-4.0761,-4.0755,-4.0698,-4.0693,-4.069,-4.0714,-4.0654,-4.0654,-4.0654,-4.0654,-4.079,-4.0794,0,0,0,0,0,0,-4.0935,-4.0922,-4.0895,-4.0891,-4.0877,-4.0827,-4.0817,-4.0816,-4.0758,-4.0745,-4.0758,-4.0749,-4.0694,-4.069,-4.0687,-4.0762,-4.0654,-4.0654,-4.0654,-4.0787,-4.0791,-4.0795,0,0,0,0,0,0,-4.0936,-4.0934,-4.0898,-4.0904,-4.0897,-4.083,-4.083,-4.0816,-4.0811,-4.0748,-4.0735,-4.0765,-4.0691,-4.0687,-4.0713,-4.0758,-4.0654,-4.0655,-4.0783,-4.0788,-4.0793,-4.0913,0,0,0,0,0,0,-4.0938,-4.0935,-4.096,-4.0905,-4.0897,-4.0925,-4.0833,-4.0817,-4.0811,-4.08,-4.0751,-4.074,-4.0688,-4.0714,-4.0714,-4.0756,-4.0655,-4.0779,-4.0785,-4.0791,-4.0904,-4.0921,-4.0936,0,0,0,0,0,-4.0939,-4.0996,-4.0961,-4.0959,-4.0927,-4.0928,-4.0923,-4.0862,-4.0816,-4.084,-4.08,-4.0742,-4.0754,-4.0717,-4.0716,-4.076,-4.0775,-4.0783,-4.0791,-4.0897,-4.0918,-4.0936,0,0,0,0,0,0,-4.1058,-4.0988,-4.0948,-4.0989,-4.0966,-4.0908,-4.0936,-4.0886,-4.0875,-4.0865,-4.079,-4.078,-4.0816,-4.0791,-4.0751,-4.0823,-4.0756,-4.0764,-4.0837,-4.0856,-4.0872,-4.0875,-4.0655,0,0,0,0,0,-4.1089,-4.1095,-4.1034,-4.1076,-4.1066,-4.1004,-4.1002,-4.0957,-4.0929,-4.0919,-4.088,-4.0856,-4.0854,-4.0854,-4.0849,-4.0902,-4.0889,-4.0931,-4.0947,-4.096,-4.0967,-4.0992,-4.101,-4.0821,-4.082,-4.082,0,0,-4.1152,-4.1115,-4.1123,-4.1099,-4.1075,-4.1083,-4.0996,-4.1008,-4.1014,-4.0921,-4.0942,-4.0914,-4.0882,-4.0922,-4.0937,-4.0902,-4.1017,-4.097,-4.0981,-4.0981,-4.1002,-4.102,-4.1036,-4.0826,-4.0825,-4.0824,0,0,-4.1272,-4.1245,-4.1276,-4.1255,-4.122,-4.1178,-4.1186,-4.1136,-4.1114,-4.1135,-4.1065,-4.1071,-4.107,-4.1049,-4.1039,-4.1153,-4.1099,-4.1154,-4.1235,-4.126,-4.1275,-4.1288,-4.1327,-4.1342,-4.1162,-4.1162,-4.1162,0,-4.1355,-4.1364,-4.1299,-4.1316,-4.1307,-4.1224,-4.1255,-4.1238,-4.1203,-4.1199,-4.1161,-4.1157,-4.113,-4.1163,-4.1191,-4.1186,-4.1192,-4.1157,-4.1278,-4.129,-4.1301,-4.1337,-4.1353,-4.1169,-4.1168,-4.1167,-4.1167,0,-4.1467,-4.1475,-4.1505,-4.1473,-4.1468,-4.1493,-4.1432,-4.1435,-4.1392,-4.1355,-4.1378,-4.1343,-4.1329,-4.1334,-4.1292,-4.1361,-4.134,-4.1292,-4.1222,-4.1327,-4.136,-4.1373,-4.1178,-4.1176,-4.1174,-4.1172,0,0,-4.1656,-4.159,-4.1601,-4.1586,-4.1542,-4.1547,-4.1569,-4.1555,-4.1558,-4.1538,-4.1553,-4.1555,-4.151,-4.1498,-4.1454,-4.1477,-4.1567,-4.1424,-4.1422,-4.145,-4.164,-4.1675,-4.1692,-4.1533,-4.1535,-4.1537,-4.1642,0,-4.1764,-4.1795,-4.1739,-4.1783,-4.1789,-4.1712,-4.173,-4.1706,-4.1673,-4.1673,-4.1637,-4.1638,-4.1579,-4.1572,-4.1591,-4.1552,-4.1604,-4.1545,-4.1545,-4.1546,-4.1552,-4.171,-4.1747,-4.1847,-4.1655,-4.1657,-4.1658,0,-4.1894,-4.188,-4.1925,-4.1879,-4.1879,-4.1896,-4.1879,-4.1881,-4.1853,-4.1827,-4.1815,-4.1763,-4.1781,-4.1717,-4.174,-4.1701,-4.1699,-4.168,-4.1683,-4.1678,-4.1606,-4.1707,-4.1878,-4.1892,-4.1678,-4.1677,-4.1675,0,-4.2024,-4.2017,-4.2042,-4.2032,-4.198,-4.1993,-4.1972,-4.194,-4.1936,-4.1922,-4.1918,-4.1907,-4.19,-4.1893,-4.1839,-4.1798,-4.1869,-4.18,-4.1847,-4.1848,-4.1862,-4.1862,-4.2033,-4.1867,-4.1866,-4.1866,-4.1866,0,-4.2149,-4.2179,-4.21,-4.2116,-4.2147,-4.2083,-4.2117,-4.2088,-4.2061,-4.207,-4.2004,-4.2013,-4.1943,-4.1946,-4.1905,-4.1929,-4.1928,-4.1907,-4.1895,-4.1911,-4.1913,-4.1906,-4.1896,-4.187,-4.1869,-4.1868,-4.1868,0,-4.2298,-4.2247,-4.2269,-4.2218,-4.2206,-4.2232,-4.2188,-4.2201,-4.2164,-4.2176,-4.2176,-4.2119,-4.2118,-4.2065,-4.2054,-4.2026,-4.2068,-4.2044,-4.2077,-4.2068,-4.2117,-4.2112,-4.2287,-4.2306,-4.2131,-4.2132,-4.2134,0,-4.2379,-4.24,-4.2352,-4.2353,-4.2335,-4.2338,-4.2333,-4.2272,-4.227,-4.2239,-4.2256,-4.225,-4.2242,-4.2245,-4.2202,-4.2194,-4.2168,-4.223,-4.2166,-4.2182,-4.2166,-4.2164,-4.2165,-4.2243,-4.2245,-4.2247,-4.2248,0,-4.2529,-4.2503,-4.2498,-4.2485,-4.2481,-4.2468,-4.245,-4.2455,-4.2388,-4.2389,-4.2388,-4.2382,-4.2371,-4.2366,-4.2349,-4.2328,-4.2277,-4.2269,-4.2279,-4.2294,-4.2311,-4.23,-4.2111,-4.2265,-4.2263,-4.2262,-4.2261,-4.226,-4.2644,-4.2659,-4.2628,-4.2625,-4.2606,-4.2591,-4.26,-4.2565,-4.2563,-4.2548,-4.2513,-4.2518,-4.2489,-4.2462,-4.2446,-4.2448,-4.2417,-4.2432,-4.2435,-4.2439,-4.2447,-4.2314,-4.2446,-4.2445,-4.2444,-4.2444,-4.2444,0,-4.2788,-4.2764,-4.2763,-4.274,-4.2738,-4.2692,-4.2671,-4.2672,-4.2676,-4.2654,-4.2648,-4.2647,-4.2642,-4.26,-4.2591,-4.2601,-4.2577,-4.26,-4.2597,-4.2593,-4.2477,-4.2468,-4.2619,-4.2619,-4.2619,-4.2619,-4.2619,-4.2619,-4.2862,-4.2885,-4.2856,-4.2868,-4.2844,-4.2848,-4.2839,-4.2826,-4.2808,-4.2809,-4.2805,-4.2778,-4.2748,-4.2736,-4.2729,-4.2717,-4.2716,-4.2746,-4.2726,-4.2618,-4.2601,-4.2585,-4.2576,-4.2747,-4.2747,-4.2841,-4.2842,-4.2843]},{"header":{"parameterUnit":"m.s-1","parameterCategory":1,"la1":30.2991,"la2":30.254,"lo1":-89.0895,"lo2":-89.0444,"dy":0.0017,"dx":0.0017,"nx":28,"ny":28,"refTime":"2024-05-01T21:00:00:Z","depth":0,"parameterNumber":3,"parameterNumberName":"V-component_of_WINDS"},"data":[0,0,0,0,0,0,0,0,0,0,0,0,0,0,0,0,0,0,0,0,0,0,0,0,0,0,0,0,0,0,0,0,0,0,0,0,0,0,0,0,0,0,0,0,0,0,0,0,0,0,0,0,0,0,0,0,0,0,2.8693,2.8693,0,2.8725,2.8726,2.8726,2.8717,2.8716,2.8716,2.8715,2.8745,2.8746,2.8748,0,0,0,0,0,0,0,0,0,0,0,0,0,2.8621,2.8622,2.8693,2.8693,2.8694,2.8725,2.8726,2.8726,2.8717,2.8716,2.8715,2.8715,2.8744,2.8746,2.8748,0,0,0,0,0,0,0,0,0,0,0,0,0,2.8652,2.8622,2.8693,2.8693,2.8693,2.8725,2.8726,2.8726,2.8717,2.8716,2.8715,2.8714,2.8744,2.8746,2.8748,2.8781,0,0,2.8754,2.8755,0,0,0,0,0,0,0,0,2.865,2.8655,2.8692,2.8693,2.8693,2.8716,2.8711,2.8744,2.8717,2.8708,2.8715,2.8714,2.8736,2.8739,2.8747,2.8782,2.8783,2.8755,2.8756,2.8757,2.8757,0,0,0,0,0,0,0,2.8648,2.8653,2.8705,2.8693,2.8694,2.8691,2.8694,2.8717,2.8727,2.8709,2.8708,2.8712,2.8736,2.8745,2.8747,2.8784,2.8755,2.8756,2.8758,2.8759,2.8849,2.885,0,0,0,0,0,0,2.8646,2.8652,2.8704,2.8706,2.8669,2.8693,2.8697,2.871,2.8727,2.8728,2.8713,2.8712,2.8742,2.8745,2.8748,2.8789,2.8757,2.8759,2.876,2.8848,2.8849,2.885,0,0,0,0,0,0,2.8645,2.8651,2.8703,2.8679,2.8685,2.8695,2.871,2.8711,2.872,2.873,2.8731,2.8721,2.8741,2.8745,2.8773,2.8789,2.876,2.8762,2.8846,2.8848,2.885,2.8869,0,0,0,0,0,0,2.8643,2.865,2.8663,2.8679,2.8687,2.8728,2.8711,2.8712,2.8724,2.8722,2.8737,2.8739,2.8741,2.877,2.8775,2.8792,2.8763,2.8845,2.8847,2.8849,2.8867,2.8871,2.8874,0,0,0,0,0,2.864,2.8666,2.8664,2.867,2.8703,2.8729,2.8733,2.8736,2.8725,2.8738,2.8745,2.8738,2.8787,2.8773,2.8779,2.8796,2.8844,2.8846,2.8849,2.8865,2.887,2.8874,0,0,0,0,0,0,2.865,2.8668,2.8666,2.8698,2.8712,2.8727,2.8743,2.8741,2.8757,2.8755,2.8756,2.876,2.8788,2.8795,2.8779,2.8829,2.8814,2.8818,2.8824,2.8829,2.8833,2.883,2.8765,0,0,0,0,0,2.8656,2.8677,2.8691,2.8718,2.8726,2.8734,2.8745,2.8746,2.876,2.8765,2.8774,2.8787,2.8806,2.8818,2.8835,2.8868,2.8871,2.8883,2.8886,2.889,2.8893,2.8912,2.8917,2.8859,2.8858,2.8858,0,0,2.8668,2.8681,2.8694,2.8721,2.8732,2.8752,2.8738,2.876,2.8776,2.8768,2.8796,2.8803,2.8817,2.8848,2.8862,2.8855,2.891,2.8893,2.8895,2.8897,2.8915,2.892,2.8925,2.886,2.886,2.886,0,0,2.8702,2.8713,2.8738,2.875,2.8768,2.8773,2.8779,2.8795,2.88,2.8828,2.8824,2.8841,2.8872,2.8884,2.8893,2.8934,2.8928,2.8939,2.8959,2.8978,2.8982,2.8986,2.9001,2.9007,2.8942,2.8942,2.8942,0,2.8715,2.8747,2.8751,2.8774,2.8786,2.8782,2.8807,2.8818,2.884,2.8848,2.884,2.8881,2.889,2.8924,2.8934,2.8942,2.8949,2.8937,2.8982,2.8986,2.899,2.9004,2.9009,2.8944,2.8943,2.8943,2.8943,0,2.8762,2.8785,2.8802,2.8826,2.884,2.8864,2.8871,2.8884,2.8885,2.8891,2.892,2.8931,2.8952,2.896,2.8959,2.8994,2.8989,2.8981,2.8966,2.8996,2.901,2.9015,2.8945,2.8945,2.8944,2.8944,0,0,2.8802,2.8829,2.8835,2.8846,2.8866,2.8883,2.8907,2.8929,2.8941,2.8956,2.8976,2.9004,2.8997,2.9009,2.9009,2.9026,2.9058,2.9016,2.9016,2.9024,2.9098,2.9104,2.911,2.9055,2.9056,2.9057,2.9097,0,2.8837,2.8881,2.8886,2.8925,2.8946,2.8943,2.8964,2.8979,2.8985,2.9004,2.9011,2.9031,2.902,2.9027,2.9043,2.905,2.9073,2.9048,2.9073,2.9074,2.907,2.9117,2.9123,2.9161,2.9102,2.9103,2.9103,0,2.8885,2.8904,2.8945,2.8964,2.8973,2.8992,2.9013,2.9031,2.9047,2.9051,2.9064,2.9064,2.9088,2.9072,2.9106,2.9089,2.9099,2.9105,2.9106,2.9109,2.9091,2.9121,2.9173,2.9178,2.9112,2.9111,2.911,0,2.891,2.8946,2.8976,2.8986,2.9008,2.9022,2.9031,2.9047,2.906,2.9078,2.9087,2.9107,2.9118,2.9133,2.9137,2.9125,2.9171,2.9155,2.9175,2.9175,2.9185,2.9184,2.9239,2.9191,2.9191,2.9191,2.9191,0,2.895,2.8975,2.8988,2.9007,2.9035,2.9041,2.9069,2.9078,2.9092,2.9112,2.911,2.9128,2.9133,2.9152,2.9156,2.9184,2.9188,2.9192,2.9193,2.9193,2.9192,2.92,2.9197,2.9193,2.9192,2.9192,2.9192,0,2.8983,2.8993,2.9025,2.9045,2.9051,2.9071,2.9087,2.9105,2.9112,2.9137,2.9143,2.9154,2.9177,2.9183,2.9209,2.9212,2.9245,2.9243,2.924,2.924,2.926,2.9258,2.9321,2.933,2.9276,2.9277,2.9277,0,2.9008,2.9028,2.9051,2.9065,2.9076,2.9098,2.9112,2.9118,2.9133,2.9154,2.9169,2.9192,2.921,2.9246,2.9256,2.9277,2.9275,2.9296,2.9278,2.9278,2.9276,2.9275,2.9278,2.93,2.93,2.9301,2.9301,0,2.9051,2.9056,2.9077,2.91,2.9118,2.9136,2.9153,2.9164,2.9173,2.919,2.9214,2.9228,2.9257,2.9279,2.9301,2.931,2.9307,2.9307,2.9313,2.9312,2.931,2.9312,2.925,2.9305,2.9305,2.9304,2.9304,2.9304,2.9082,2.91,2.9119,2.9143,2.9158,2.9174,2.9193,2.9203,2.9224,2.9248,2.925,2.9277,2.9293,2.9322,2.9332,2.9353,2.9346,2.9354,2.9356,2.9359,2.9361,2.9307,2.9356,2.9356,2.9356,2.9356,2.9356,0,2.9126,2.9139,2.9161,2.9186,2.9205,2.9203,2.9222,2.9238,2.9262,2.9278,2.9297,2.9326,2.9348,2.936,2.9382,2.9396,2.9396,2.9402,2.9401,2.9403,2.9365,2.9358,2.9402,2.9402,2.9402,2.9402,2.9402,2.9402,2.9151,2.9182,2.9189,2.9227,2.924,2.9267,2.9278,2.9294,2.9307,2.934,2.9359,2.9367,2.9382,2.9406,2.9426,2.9429,2.9437,2.9445,2.9447,2.9411,2.9406,2.9401,2.9395,2.9446,2.9446,2.9484,2.9484,2.9485]}]]